sat.trackr.live / text

‹ back to catalog

STARLINK-31430

NORAD 59375 · 2024-062B

PAYLOAD ACTIVE UNKNOWN

§ Identity

Operator
Country
US
Launch date
2024-04-02
Launch site
AFWTR
Launch vehicle
Mass (kg)
RCS (m²)

Purposes: comms

External: N2YO · Heavens-Above · Gunter

§ Orbital elements

Epoch: 2026-09-20T01:23:39.678432Z

Period
93.85 min
Inclination
53.1603°
Eccentricity
0.0001247
Mean motion
15.34383364 rev/d
Perigee alt
461.9 km
Apogee alt
463.6 km
Semi-major
6,840.9 km
B*
8.8757e-6
RAAN
71.8867°
Arg perigee
93.4372°
Mean anomaly
266.6773°
Rev number
13,944

§ Raw data

STARLINK-314301 59375U 24062B   26263.05809813 -.00000076  00000+0  88757-5 0  99992 59375  53.1603  71.8867 0001247  93.4372 266.6773 15.34383364139446

JSON: /api/v1/satellites/59375 · /tle

For live sub-satellite position, see the globe view (requires WebGL).

§ Visibility from observer

Set your observer location to see the next 7 days of passes ≥ 10°. The values pass through the URL so the page stays shareable.

No JS? Fill the form by hand. The geolocation button needs JavaScript.